Погода в Лукуве

Польша     51°55′57″N   22°23′31″E
темп.,
°C
ветер,
м/с
пор.,
м/с
влажн.,
%
обл.,
%
осадки,
мм/ч
давл.,
гПа
погр.,
м
28 февраля, вс
вс2801:000сз510930 0.0 1032353
04:00−1зсз598930 0.0 1032307
07:000зсз5108059 0.0 1032296
10:00+4зсз6106560 0.0 1030461
13:00+6зсз7116948 0.0 1028848
16:00+4сз8118059 0.0 1028834
19:00+3сз6128977 0.0 1028572
22:00+3ссз61190100 0.1 1030479
1 марта, пн
пн101:00+2ссз489399 0.1 1032341
04:00+1ссз349787 0.0 1032173
07:00+1сз349594 0.0 1034268
10:00+2зсз3489100 0.0 1034339
13:00+7зсз346884 0.0 1034652
16:00+8зсз467017 0.0 1033634
19:00+4з36868 0.0 1033122
22:00+3з49890 0.0 1032206
2 марта, вт
вт201:00+3з511892 0.0 1032274
04:00+2з510921 0.0 1030282
07:00+1зсз512941 0.0 1030311
10:00+5зсз58773 0.0 1031559
13:00+7зсз57678 0.0 1030673
16:00+8зсз58700 0.0 1029658
19:00+4зсз410890 0.0 1030266
22:00+3сз35940 0.0 1030100
3 марта, ср
ср301:00+2зсз339548 0.0 103159
04:00+1сз33960 0.0 103062
07:00+1сз23981 0.0 103073
10:00+5зсз237815 0.0 1030350
13:00+8з236329 0.0 1029629
16:00+8зюз346960 0.0 1027634
19:00+4з128330 0.0 102622
22:00+3зюз23881 0.0 102524
4 марта, чт
чт401:00+1зюз33893 0.0 102343
04:00+1зюз34890 0.0 102170
07:00+1юз47850 0.0 1019148
10:00+6юз576633 0.0 1016329
13:00+10зюз586026 0.0 1014690
16:00+9зюз4967100 0.0 1011619
19:00+6зюз41080100 0.0 1010271
22:00+6юз4887100 0.1 1008215